,,PA_Meas_PMT16A,,PR_Meas_QMR101_102,,RH_Meas_QMH101,,SR_Meas_QMS101,,TA_Meas_QMH101,,GenWind,,GenWind,
time,status,PA,status,PR,status,RH,status,SR,status,TA,status,DirAvg,status,SpdAvg,
2012-02-10, 00:00:04,VALID,917.688,VALID,0,VALID,85.8854,VALID,0,VALID,20.9136,VALID,143,VALID,0.989453,
2012-02-10, 00:01:04,VALID,917.727,VALID,0,VALID,85.9083,VALID,0,VALID,20.9331,VALID,145,VALID,1.75508,
2012-02-10, 00:02:04,VALID,917.689,VALID,0,VALID,85.7177,VALID,0,VALID,20.9316,VALID,166,VALID,1.42578,
2012-02-10, 00:03:04,VALID,917.701,VALID,0,VALID,85.7482,VALID,0,VALID,20.9316,VALID,158,VALID,1.27813,
2012-02-10, 00:04:04,VALID,917.679,VALID,0,VALID,85.8854,VALID,0,VALID,20.8925,VALID,161,VALID,1.39492,
2012-02-10, 00:05:04,VALID,917.671,VALID,0,VALID,86.0684,VALID,0,VALID,20.8925,VALID,156,VALID,1.34961,
2012-02-10, 00:06:04,VALID,917.711,VALID,0,VALID,86.1675,VALID,0,VALID,20.8941,VALID,161,VALID,1.28281,
2012-02-10, 00:07:04,VALID,917.711,VALID,0,VALID,86.1827,VALID,0,VALID,20.873,VALID,156,VALID,0.767187,
2012-02-10, 00:08:04,VALID,917.682,VALID,0,VALID,86.1903,VALID,0,VALID,20.873,VALID,159,VALID,0.879687,
2012-02-10, 00:09:04,VALID,917.653,VALID,0,VALID,86.4114,VALID,0,VALID,20.8535,VALID,138,VALID,1.38672,
2012-02-10, 00:10:04,VALID,917.644,VALID,0,VALID,86.4267,VALID,0,VALID,20.834,VALID,144,VALID,2.02734,
2012-02-10, 00:11:04,VALID,917.659,VALID,0,VALID,86.785,VALID,0,VALID,20.8145,VALID,144,VALID,1.07695,
2012-02-10, 00:12:04,VALID,917.652,VALID,0,VALID,86.5182,VALID,0,VALID,20.8145,VALID,139,VALID,1.31602,
2012-02-10, 00:13:04,VALID,917.578,VALID,0,VALID,86.1827,VALID,0,VALID,20.891,VALID,165,VALID,1.52422,
2012-02-10, 00:14:04,VALID,917.563,VALID,0,VALID,86.2437,VALID,0,VALID,20.8699,VALID,161,VALID,0.955078,
2012-02-10, 00:15:04,VALID,917.545,VALID,0,VALID,86.2589,VALID,0.107441,VALID,20.8894,VALID,134,VALID,0.579297,
2012-02-10, 00:16:04,VALID,917.537,VALID,0,VALID,86.4038,VALID,0.107441,VALID,20.8504,VALID,112,VALID,1.35195,
2012-02-10, 00:17:04,VALID,917.527,VALID,0,VALID,86.6401,VALID,0,VALID,20.8519,VALID,128,VALID,1.14727,
2012-02-10, 00:18:04,VALID,917.576,VALID,0,VALID,86.6096,VALID,0.107441,VALID,20.7918,VALID,145,VALID,1.38555,
2012-02-10, 00:19:04,VALID,917.527,VALID,0,VALID,86.602,VALID,0.107441,VALID,20.8113,VALID,145,VALID,1.56914,
2012-02-10, 00:20:04,VALID,917.502,VALID,0,VALID,86.6554,VALID,0,VALID,20.834,VALID,141,VALID,0.830469,
2012-02-10, 00:21:04,VALID,917.481,VALID,0,VALID,86.2742,VALID,0.107441,VALID,20.8519,VALID,169,VALID,2.35781,
2012-02-10, 00:22:04,VALID,917.467,VALID,0,VALID,86.4495,VALID,0,VALID,20.8714,VALID,151,VALID,1.15039,
2012-02-10, 00:23:04,VALID,917.49,VALID,0,VALID,85.1536,VALID,0.107441,VALID,20.9089,VALID,129,VALID,2.11328,
2012-02-10, 00:24:04,VALID,917.499,VALID,0,VALID,85.0926,VALID,0,VALID,21.0259,VALID,133,VALID,0.814844,
2012-02-10, 00:25:04,VALID,917.437,VALID,0,VALID,85.2145,VALID,0.107441,VALID,21.047,VALID,136,VALID,1.46016,
2012-02-10, 00:26:04,VALID,917.486,VALID,0,VALID,85.2374,VALID,0,VALID,21.0259,VALID,140,VALID,1.67578,
2012-02-10, 00:27:04,VALID,917.459,VALID,0,VALID,85.3518,VALID,0.107441,VALID,21.008,VALID,136,VALID,0.964453,
2012-02-10, 00:28:04,VALID,917.449,VALID,0,VALID,85.3746,VALID,0,VALID,21.0291,VALID,166,VALID,1.08477,
2012-02-10, 00:29:04,VALID,917.429,VALID,0,VALID,85.3441,VALID,0,VALID,21.0275,VALID,148,VALID,1.60938,
2012-02-10, 00:30:04,VALID,917.411,VALID,0,VALID,84.4903,VALID,0,VALID,21.1461,VALID,152,VALID,1.62695,
2012-02-10, 00:31:04,VALID,917.359,VALID,0,VALID,84.6962,VALID,0,VALID,21.1461,VALID,152,VALID,1.60078,
2012-02-10, 00:32:04,VALID,917.35,VALID,0,VALID,85.0392,VALID,0,VALID,21.086,VALID,156,VALID,0.565625,
2012-02-10, 00:33:04,VALID,917.332,VALID,0,VALID,85.245,VALID,0,VALID,21.0892,VALID,139,VALID,0.900391,
2012-02-10, 00:34:04,VALID,917.331,VALID,0,VALID,85.5652,VALID,0,VALID,21.0096,VALID,120,VALID,1.34063,
2012-02-10, 00:35:04,VALID,917.315,VALID,0,VALID,85.2603,VALID,0,VALID,20.9901,VALID,137,VALID,2.52305,
2012-02-10, 00:36:04,VALID,917.293,VALID,0,VALID,85.3289,VALID,0,VALID,21.0307,VALID,158,VALID,1.58438,
2012-02-10, 00:37:04,VALID,917.295,VALID,0,VALID,85.6567,VALID,0,VALID,20.9901,VALID,137,VALID,0.888281,
2012-02-10, 00:38:04,VALID,917.309,VALID,0,VALID,85.9845,VALID,0,VALID,20.9105,VALID,146,VALID,1.14609,
2012-02-10, 00:39:04,VALID,917.297,VALID,0,VALID,85.9311,VALID,0,VALID,20.912,VALID,159,VALID,1.91289,
2012-02-10, 00:40:04,VALID,917.282,VALID,0,VALID,86.2208,VALID,0,VALID,20.8714,VALID,152,VALID,0.966406,
2012-02-10, 00:41:04,VALID,917.294,VALID,0,VALID,85.8702,VALID,0,VALID,20.8714,VALID,158,VALID,1.31523,
2012-02-10, 00:42:04,VALID,917.288,VALID,0,VALID,86.0303,VALID,0,VALID,20.912,VALID,131,VALID,1.15234,
2012-02-10, 00:43:04,VALID,917.253,VALID,0,VALID,86.1827,VALID,0,VALID,20.8504,VALID,159,VALID,1.21797,
2012-02-10, 00:44:04,VALID,917.253,VALID,0,VALID,85.9769,VALID,0,VALID,20.9331,VALID,143,VALID,1.04688,
2012-02-10, 00:45:04,VALID,917.284,VALID,0,VALID,86.1141,VALID,0,VALID,20.8941,VALID,146,VALID,1.15078,
2012-02-10, 00:46:04,VALID,917.221,VALID,0,VALID,86.2437,VALID,0,VALID,20.9152,VALID,132,VALID,1.06719,
2012-02-10, 00:47:04,VALID,917.203,VALID,0,VALID,86.0379,VALID,0,VALID,20.8714,VALID,154,VALID,1.40352,
2012-02-10, 00:48:04,VALID,917.201,VALID,0,VALID,86.2056,VALID,0,VALID,20.8535,VALID,161,VALID,1.2793,
2012-02-10, 00:49:04,VALID,917.164,VALID,0,VALID,86.4419,VALID,0,VALID,20.8356,VALID,169,VALID,1.82383,
2012-02-10, 00:50:04,VALID,917.189,VALID,0,VALID,86.0684,VALID,0,VALID,20.834,VALID,150,VALID,1.36016,
2012-02-10, 00:51:04,VALID,917.159,VALID,0,VALID,86.0836,VALID,0,VALID,20.873,VALID,140,VALID,0.994531,
2012-02-10, 00:52:04,VALID,917.147,VALID,0,VALID,86.3504,VALID,0,VALID,20.8535,VALID,163,VALID,1.51719,
2012-02-10, 00:53:04,VALID,917.135,VALID,0,VALID,86.3733,VALID,0,VALID,20.7934,VALID,164,VALID,1.15664,
2012-02-10, 00:54:04,VALID,917.12,VALID,0,VALID,86.4724,VALID,0,VALID,20.8145,VALID,154,VALID,1.19141,
2012-02-10, 00:55:04,VALID,917.11,VALID,0,VALID,86.602,VALID,0,VALID,20.795,VALID,134,VALID,1.2168,
2012-02-10, 00:56:04,VALID,917.077,VALID,0,VALID,86.724,VALID,0,VALID,20.795,VALID,142,VALID,1.16172,
2012-02-10, 00:57:04,VALID,917.043,VALID,0,VALID,86.7468,VALID,0,VALID,20.7771,VALID,169,VALID,1.60469,
2012-02-10, 00:58:04,VALID,917.028,VALID,0,VALID,86.8841,VALID,0,VALID,20.7349,VALID,161,VALID,1.18164,
2012-02-10, 00:59:04,VALID,917.027,VALID,0,VALID,86.9451,VALID,0,VALID,20.7349,VALID,173,VALID,1.08906,
2012-02-10, 01:00:04,VALID,917.055,VALID,0,VALID,87.0365,VALID,0,VALID,20.7154,VALID,147,VALID,1.07617,
2012-02-10, 01:01:04,VALID,917.007,VALID,0,VALID,87.1814,VALID,0.107441,VALID,20.6959,VALID,177,VALID,1.44258,
2012-02-10, 01:02:04,VALID,917.029,VALID,0,VALID,87.0823,VALID,0,VALID,20.6959,VALID,161,VALID,1.52148,
2012-02-10, 01:03:04,VALID,916.994,VALID,0,VALID,86.9374,VALID,0,VALID,20.7154,VALID,166,VALID,0.952344,
2012-02-10, 01:04:04,VALID,916.994,VALID,0,VALID,86.8231,VALID,0,VALID,20.7365,VALID,153,VALID,1.41484,
2012-02-10, 01:05:04,VALID,916.97,VALID,0,VALID,86.602,VALID,0,VALID,20.7349,VALID,139,VALID,1.13711,
2012-02-10, 01:06:04,VALID,916.965,VALID,0,VALID,86.2818,VALID,0,VALID,20.756,VALID,142,VALID,1.78711,
2012-02-10, 01:07:04,VALID,916.936,VALID,0,VALID,86.2513,VALID,0,VALID,20.7934,VALID,153,VALID,1.30703,
2012-02-10, 01:08:04,VALID,916.904,VALID,0,VALID,86.4038,VALID,0.107441,VALID,20.8145,VALID,154,VALID,1.30547,
2012-02-10, 01:09:04,VALID,916.89,VALID,0,VALID,86.5105,VALID,0.107441,VALID,20.7333,VALID,153,VALID,1.12773,
2012-02-10, 01:10:04,VALID,916.848,VALID,0,VALID,86.5258,VALID,0,VALID,20.7544,VALID,148,VALID,1.21445,
2012-02-10, 01:11:04,VALID,916.837,VALID,0,VALID,86.5639,VALID,0,VALID,20.7544,VALID,160,VALID,1.38477,
2012-02-10, 01:12:04,VALID,916.815,VALID,0,VALID,86.6401,VALID,0,VALID,20.7138,VALID,145,VALID,1.95703,
2012-02-10, 01:13:04,VALID,916.772,VALID,0,VALID,86.6935,VALID,0,VALID,20.7349,VALID,138,VALID,1.4043,
2012-02-10, 01:14:04,VALID,916.743,VALID,0,VALID,86.724,VALID,0,VALID,20.7365,VALID,129,VALID,2.16406,
2012-02-10, 01:15:04,VALID,916.758,VALID,0,VALID,86.6706,VALID,0,VALID,20.7365,VALID,164,VALID,1.88945,
2012-02-10, 01:16:04,VALID,916.731,VALID,0,VALID,86.8993,VALID,0,VALID,20.6959,VALID,145,VALID,1.33359,
2012-02-10, 01:17:04,VALID,916.683,VALID,0,VALID,86.9527,VALID,0,VALID,20.717,VALID,161,VALID,1.52656,
2012-02-10, 01:18:04,VALID,916.648,VALID,0,VALID,86.8688,VALID,0,VALID,20.6748,VALID,148,VALID,2.30938,
2012-02-10, 01:19:04,VALID,916.625,VALID,0,VALID,87.1585,VALID,0,VALID,20.6959,VALID,163,VALID,0.944141,
2012-02-10, 01:20:04,VALID,916.644,VALID,0,VALID,87.2119,VALID,0,VALID,20.6764,VALID,170,VALID,1.42109,
2012-02-10, 01:21:04,VALID,916.623,VALID,0,VALID,87.3491,VALID,0,VALID,20.6179,VALID,160,VALID,1.31641,
2012-02-10, 01:22:04,VALID,916.596,VALID,0,VALID,87.25,VALID,0,VALID,20.6179,VALID,153,VALID,1.82813,
2012-02-10, 01:23:04,VALID,916.577,VALID,0,VALID,87.2271,VALID,0,VALID,20.6585,VALID,154,VALID,1.43594,
2012-02-10, 01:24:04,VALID,916.511,VALID,0,VALID,87.4863,VALID,0,VALID,20.6374,VALID,158,VALID,1.18477,
2012-02-10, 01:25:04,VALID,916.545,VALID,0,VALID,87.654,VALID,0,VALID,20.5984,VALID,145,VALID,0.760156,
2012-02-10, 01:26:04,VALID,916.483,VALID,0,VALID,87.6845,VALID,0,VALID,20.6015,VALID,152,VALID,1.28047,
2012-02-10, 01:27:04,VALID,916.455,VALID,0,VALID,87.4482,VALID,0,VALID,20.621,VALID,164,VALID,1.7793,
2012-02-10, 01:28:04,VALID,916.466,VALID,0,VALID,87.372,VALID,0,VALID,20.6194,VALID,162,VALID,1.61133,
2012-02-10, 01:29:04,VALID,916.458,VALID,0,VALID,87.4787,VALID,0,VALID,20.5984,VALID,163,VALID,0.954687,
2012-02-10, 01:30:04,VALID,916.449,VALID,0,VALID,87.3796,VALID,0,VALID,20.5999,VALID,158,VALID,1.81367,
2012-02-10, 01:31:04,VALID,916.437,VALID,0,VALID,87.4025,VALID,0,VALID,20.6179,VALID,136,VALID,1.47695,
2012-02-10, 01:32:04,VALID,916.4,VALID,0,VALID,87.3643,VALID,0,VALID,20.5984,VALID,147,VALID,1.56406,
2012-02-10, 01:33:04,VALID,916.411,VALID,0,VALID,87.6083,VALID,0,VALID,20.5984,VALID,146,VALID,0.438281,
2012-02-10, 01:34:04,VALID,916.36,VALID,0,VALID,87.3948,VALID,0,VALID,20.5999,VALID,153,VALID,2.13672,
2012-02-10, 01:35:04,VALID,916.353,VALID,0,VALID,87.2119,VALID,0,VALID,20.5789,VALID,171,VALID,2.26328,
2012-02-10, 01:36:04,VALID,916.338,VALID,0,VALID,87.2729,VALID,0,VALID,20.5984,VALID,167,VALID,2.60273,
2012-02-10, 01:37:04,VALID,916.335,VALID,0,VALID,87.2957,VALID,0,VALID,20.5999,VALID,144,VALID,1.80156,
2012-02-10, 01:38:04,VALID,916.352,VALID,0,VALID,87.3643,VALID,0,VALID,20.5789,VALID,146,VALID,1.60664,
2012-02-10, 01:39:04,VALID,916.329,VALID,0,VALID,87.2805,VALID,0,VALID,20.5999,VALID,160,VALID,2.22539,
2012-02-10, 01:40:04,VALID,916.339,VALID,0,VALID,87.2957,VALID,0,VALID,20.5968,VALID,151,VALID,1.84648,
2012-02-10, 01:41:04,VALID,916.338,VALID,0,VALID,87.2729,VALID,0,VALID,20.6179,VALID,159,VALID,1.79102,
2012-02-10, 01:42:04,VALID,916.325,VALID,0,VALID,87.1738,VALID,0,VALID,20.6179,VALID,144,VALID,1.54805,
2012-02-10, 01:43:04,VALID,916.298,VALID,0,VALID,86.8917,VALID,0,VALID,20.6585,VALID,130,VALID,1.88125,
2012-02-10, 01:44:04,VALID,916.291,VALID,0,VALID,86.8612,VALID,0,VALID,20.6569,VALID,143,VALID,1.81328,
2012-02-10, 01:45:04,VALID,916.279,VALID,0,VALID,86.7392,VALID,0,VALID,20.6358,VALID,146,VALID,2.17266,
2012-02-10, 01:46:04,VALID,916.27,VALID,0,VALID,86.8688,VALID,0,VALID,20.6975,VALID,143,VALID,1.68555,
2012-02-10, 01:47:04,VALID,916.275,VALID,0,VALID,86.8307,VALID,0,VALID,20.6569,VALID,169,VALID,1.97109,
2012-02-10, 01:48:04,VALID,916.265,VALID,0,VALID,86.8612,VALID,0,VALID,20.6569,VALID,166,VALID,1.66992,
2012-02-10, 01:49:04,VALID,916.283,VALID,0,VALID,86.9374,VALID,0,VALID,20.6374,VALID,157,VALID,1.63906,
2012-02-10, 01:50:04,VALID,916.299,VALID,0,VALID,86.9527,VALID,0,VALID,20.6585,VALID,149,VALID,1.23867,
2012-02-10, 01:51:04,VALID,916.319,VALID,0,VALID,86.8764,VALID,0,VALID,20.6795,VALID,130,VALID,1.78281,
2012-02-10, 01:52:04,VALID,916.29,VALID,0,VALID,87.0213,VALID,0,VALID,20.639,VALID,140,VALID,0.858594,
2012-02-10, 01:53:04,VALID,916.274,VALID,0,VALID,87.0899,VALID,0,VALID,20.639,VALID,170,VALID,1.08477,
2012-02-10, 01:54:04,VALID,916.308,VALID,0,VALID,87.067,VALID,0,VALID,20.6179,VALID,131,VALID,1.87734,
2012-02-10, 01:55:04,VALID,916.29,VALID,0,VALID,87.1661,VALID,0,VALID,20.6194,VALID,149,VALID,1.17891,
2012-02-10, 01:56:04,VALID,916.304,VALID,0,VALID,87.3796,VALID,0,VALID,20.6194,VALID,186,VALID,0.800781,
2012-02-10, 01:57:04,VALID,916.291,VALID,0,VALID,87.4101,VALID,0,VALID,20.5804,VALID,162,VALID,1.5168,
2012-02-10, 01:58:04,VALID,916.284,VALID,0,VALID,87.2043,VALID,0,VALID,20.5999,VALID,166,VALID,1.70313,
2012-02-10, 01:59:04,VALID,916.247,VALID,0,VALID,87.0975,VALID,0,VALID,20.639,VALID,144,VALID,1.50977,
2012-02-10, 02:00:04,VALID,916.255,VALID,0,VALID,87.2119,VALID,0,VALID,20.6179,VALID,162,VALID,1.78516,
2012-02-10, 02:01:04,VALID,916.247,VALID,0,VALID,87.0442,VALID,0,VALID,20.5984,VALID,160,VALID,2.4082,
2012-02-10, 02:02:04,VALID,916.193,VALID,0,VALID,87.1051,VALID,0,VALID,20.639,VALID,151,VALID,1.32539,
2012-02-10, 02:03:04,VALID,916.19,VALID,0,VALID,86.7392,VALID,0,VALID,20.6179,VALID,135,VALID,2.47891,
2012-02-10, 02:04:04,VALID,916.146,VALID,0,VALID,86.6782,VALID,0,VALID,20.678,VALID,141,VALID,1.72969,
2012-02-10, 02:05:04,VALID,916.124,VALID,0,VALID,86.5563,VALID,0,VALID,20.6569,VALID,123,VALID,1.84414,
2012-02-10, 02:06:04,VALID,916.103,VALID,0,VALID,86.5791,VALID,0,VALID,20.6764,VALID,152,VALID,1.46484,
2012-02-10, 02:07:04,VALID,916.079,VALID,0,VALID,86.4724,VALID,0,VALID,20.6748,VALID,167,VALID,1.45352,
2012-02-10, 02:08:04,VALID,916.071,VALID,0,VALID,86.5029,VALID,0,VALID,20.7365,VALID,154,VALID,1.66602,
2012-02-10, 02:09:04,VALID,916.069,VALID,0,VALID,86.2361,VALID,0,VALID,20.717,VALID,151,VALID,2.04375,
2012-02-10, 02:10:04,VALID,916.084,VALID,0,VALID,86.0989,VALID,0,VALID,20.7349,VALID,179,VALID,2.19297,
2012-02-10, 02:11:04,VALID,916.07,VALID,0,VALID,85.6262,VALID,0,VALID,20.795,VALID,133,VALID,2.15391,
2012-02-10, 02:12:04,VALID,916.125,VALID,0,VALID,85.3823,VALID,0,VALID,20.8145,VALID,144,VALID,2.06211,
2012-02-10, 02:13:04,VALID,916.1,VALID,0,VALID,85.489,VALID,0,VALID,20.7918,VALID,134,VALID,1.59375,
2012-02-10, 02:14:04,VALID,916.074,VALID,0,VALID,85.672,VALID,0,VALID,20.8129,VALID,148,VALID,2.00352,
2012-02-10, 02:15:04,VALID,916.066,VALID,0,VALID,85.7329,VALID,0,VALID,20.8129,VALID,160,VALID,1.86484,
2012-02-10, 02:16:04,VALID,916.068,VALID,0,VALID,85.7253,VALID,0.107441,VALID,20.8145,VALID,129,VALID,2.53359,
2012-02-10, 02:17:04,VALID,916.054,VALID,0,VALID,85.9007,VALID,0,VALID,20.8535,VALID,150,VALID,1.84961,
2012-02-10, 02:18:04,VALID,916.051,VALID,0,VALID,85.6262,VALID,0.107441,VALID,20.7934,VALID,136,VALID,2.33437,
2012-02-10, 02:19:04,VALID,916.022,VALID,0,VALID,85.5652,VALID,0,VALID,20.8129,VALID,132,VALID,1.28086,
2012-02-10, 02:20:04,VALID,916.011,VALID,0,VALID,85.4509,VALID,0,VALID,20.8309,VALID,128,VALID,2.08242,
2012-02-10, 02:21:04,VALID,915.995,VALID,0,VALID,85.4356,VALID,0,VALID,20.8309,VALID,153,VALID,2.11953,
2012-02-10, 02:22:04,VALID,915.914,VALID,0,VALID,85.7787,VALID,0,VALID,20.7918,VALID,131,VALID,1.48594,
2012-02-10, 02:23:04,VALID,915.956,VALID,0,VALID,86.0684,VALID,0,VALID,20.7934,VALID,143,VALID,1.34766,
2012-02-10, 02:24:04,VALID,915.935,VALID,0,VALID,86.0912,VALID,0,VALID,20.7349,VALID,137,VALID,2.38086,
2012-02-10, 02:25:04,VALID,915.871,VALID,0,VALID,86.2818,VALID,0,VALID,20.7349,VALID,137,VALID,1.92969,
2012-02-10, 02:26:04,VALID,915.867,VALID,0,VALID,86.3276,VALID,0.107441,VALID,20.7544,VALID,156,VALID,1.39336,
2012-02-10, 02:27:04,VALID,915.85,VALID,0,VALID,86.3123,VALID,0,VALID,20.7349,VALID,137,VALID,2.66406,
2012-02-10, 02:28:04,VALID,915.832,VALID,0,VALID,86.5639,VALID,0,VALID,20.7154,VALID,163,VALID,1.52344,
2012-02-10, 02:29:04,VALID,915.791,VALID,0,VALID,86.724,VALID,0,VALID,20.6975,VALID,157,VALID,2.16094,
2012-02-10, 02:30:04,VALID,915.774,VALID,0,VALID,86.7545,VALID,0,VALID,20.6374,VALID,157,VALID,1.62852,
2012-02-10, 02:31:04,VALID,915.783,VALID,0,VALID,86.9984,VALID,0.107441,VALID,20.5968,VALID,174,VALID,1.7832,
2012-02-10, 02:32:04,VALID,915.734,VALID,0,VALID,87.1661,VALID,0,VALID,20.6194,VALID,171,VALID,1.35508,
2012-02-10, 02:33:04,VALID,915.719,VALID,0,VALID,87.2119,VALID,0,VALID,20.5999,VALID,147,VALID,1.28555,
2012-02-10, 02:34:04,VALID,915.706,VALID,0,VALID,87.3339,VALID,0,VALID,20.5594,VALID,163,VALID,1.64648,
2012-02-10, 02:35:04,VALID,915.704,VALID,0,VALID,87.25,VALID,0,VALID,20.5804,VALID,157,VALID,1.55625,
2012-02-10, 02:36:04,VALID,915.685,VALID,0,VALID,87.2424,VALID,0,VALID,20.5999,VALID,151,VALID,1.20625,
2012-02-10, 02:37:04,VALID,915.676,VALID,0,VALID,87.1585,VALID,0,VALID,20.5804,VALID,152,VALID,1.25195,
2012-02-10, 02:38:04,VALID,915.631,VALID,0,VALID,86.7545,VALID,0,VALID,20.5804,VALID,146,VALID,1.77383,
2012-02-10, 02:39:04,VALID,915.631,VALID,0,VALID,86.846,VALID,0,VALID,20.5984,VALID,152,VALID,1.85977,
2012-02-10, 02:40:04,VALID,915.604,VALID,0,VALID,86.5334,VALID,0,VALID,20.6179,VALID,154,VALID,2.36523,
2012-02-10, 02:41:04,VALID,915.633,VALID,0,VALID,86.4419,VALID,0,VALID,20.6585,VALID,148,VALID,1.81133,
2012-02-10, 02:42:04,VALID,915.627,VALID,0,VALID,85.9388,VALID,0,VALID,20.6537,VALID,146,VALID,1.33008,
2012-02-10, 02:43:04,VALID,915.62,VALID,0,VALID,86.1598,VALID,0,VALID,20.6943,VALID,141,VALID,1.17305,
2012-02-10, 02:44:04,VALID,915.598,VALID,0,VALID,85.5728,VALID,0,VALID,20.717,VALID,153,VALID,1.55703,
2012-02-10, 02:45:04,VALID,915.633,VALID,0,VALID,85.9007,VALID,0,VALID,20.7365,VALID,133,VALID,1.77578,
2012-02-10, 02:46:04,VALID,915.602,VALID,0,VALID,85.8473,VALID,0.107441,VALID,20.717,VALID,146,VALID,1.39922,
2012-02-10, 02:47:04,VALID,915.583,VALID,0,VALID,85.0468,VALID,0,VALID,20.795,VALID,134,VALID,2.15742,
2012-02-10, 02:48:04,VALID,915.575,VALID,0,VALID,85.1307,VALID,0.107441,VALID,20.834,VALID,116,VALID,1.81758,
2012-02-10, 02:49:04,VALID,915.587,VALID,0,VALID,85.367,VALID,0.107441,VALID,20.7528,VALID,134,VALID,1.91367,
2012-02-10, 02:50:04,VALID,915.575,VALID,0,VALID,85.4051,VALID,0,VALID,20.7349,VALID,126,VALID,1.76953,
2012-02-10, 02:51:04,VALID,915.54,VALID,0,VALID,85.1917,VALID,0,VALID,20.7755,VALID,141,VALID,1.62109,
2012-02-10, 02:52:04,VALID,915.527,VALID,0,VALID,85.2527,VALID,0,VALID,20.7739,VALID,140,VALID,1.98555,
2012-02-10, 02:53:04,VALID,915.522,VALID,0,VALID,85.4814,VALID,0.107441,VALID,20.7528,VALID,129,VALID,1.16016,
2012-02-10, 02:54:04,VALID,915.502,VALID,0,VALID,85.5576,VALID,0,VALID,20.7755,VALID,151,VALID,1.15586,
2012-02-10, 02:55:04,VALID,915.49,VALID,0,VALID,85.6491,VALID,0,VALID,20.7576,VALID,149,VALID,1.60273,
2012-02-10, 02:56:04,VALID,915.5,VALID,0,VALID,85.5119,VALID,0,VALID,20.7755,VALID,132,VALID,1.98008,
2012-02-10, 02:57:04,VALID,915.481,VALID,0,VALID,85.5347,VALID,0,VALID,20.756,VALID,162,VALID,1.80195,
2012-02-10, 02:58:04,VALID,915.47,VALID,0,VALID,85.7024,VALID,0,VALID,20.6959,VALID,122,VALID,1.6668,
2012-02-10, 02:59:04,VALID,915.464,VALID,0,VALID,85.832,VALID,0,VALID,20.717,VALID,133,VALID,1.56797,
2012-02-10, 03:00:04,VALID,915.481,VALID,0,VALID,85.3975,VALID,0,VALID,20.6553,VALID,121,VALID,2.35586,
2012-02-10, 03:01:04,VALID,915.443,VALID,0,VALID,85.3823,VALID,0,VALID,20.7154,VALID,123,VALID,1.51445,
2012-02-10, 03:02:04,VALID,915.42,VALID,0,VALID,85.3441,VALID,0,VALID,20.756,VALID,150,VALID,1.32383,
2012-02-10, 03:03:04,VALID,915.416,VALID,0,VALID,84.9325,VALID,0,VALID,20.7333,VALID,162,VALID,2.9582,
2012-02-10, 03:04:04,VALID,915.397,VALID,0,VALID,85.55,VALID,0,VALID,20.7544,VALID,116,VALID,1.55,
2012-02-10, 03:05:04,VALID,915.371,VALID,0,VALID,85.9159,VALID,0,VALID,20.6748,VALID,150,VALID,1.02656,
2012-02-10, 03:06:04,VALID,915.379,VALID,0,VALID,86.1217,VALID,0,VALID,20.6374,VALID,161,VALID,1.45703,
2012-02-10, 03:07:04,VALID,915.371,VALID,0,VALID,86.2971,VALID,0,VALID,20.6405,VALID,169,VALID,1.53984,
2012-02-10, 03:08:04,VALID,915.347,VALID,0,VALID,86.5029,VALID,0,VALID,20.6405,VALID,162,VALID,0.9625,
2012-02-10, 03:09:04,VALID,915.348,VALID,0,VALID,86.3047,VALID,0,VALID,20.5594,VALID,143,VALID,1.86875,
2012-02-10, 03:10:04,VALID,915.334,VALID,0,VALID,86.2361,VALID,0,VALID,20.5594,VALID,123,VALID,1.99063,
2012-02-10, 03:11:04,VALID,915.352,VALID,0,VALID,85.8778,VALID,0,VALID,20.5984,VALID,129,VALID,2.98477,
2012-02-10, 03:12:04,VALID,915.304,VALID,0,VALID,85.0697,VALID,0.107441,VALID,20.7381,VALID,123,VALID,2.00938,
2012-02-10, 03:13:04,VALID,915.289,VALID,0,VALID,84.6047,VALID,0,VALID,20.7771,VALID,138,VALID,2.34687,
2012-02-10, 03:14:04,VALID,915.297,VALID,0,VALID,84.7038,VALID,0,VALID,20.8356,VALID,138,VALID,1.7875,
2012-02-10, 03:15:04,VALID,915.288,VALID,0,VALID,84.5742,VALID,0,VALID,20.8145,VALID,132,VALID,1.95234,
2012-02-10, 03:16:04,VALID,915.273,VALID,0,VALID,84.7724,VALID,0,VALID,20.8145,VALID,143,VALID,1.83281,
2012-02-10, 03:17:04,VALID,915.302,VALID,0,VALID,84.9325,VALID,0,VALID,20.7723,VALID,137,VALID,1.38984,
2012-02-10, 03:18:04,VALID,915.292,VALID,0,VALID,84.9325,VALID,0,VALID,20.7755,VALID,119,VALID,1.49727,
2012-02-10, 03:19:04,VALID,915.293,VALID,0,VALID,85.1459,VALID,0,VALID,20.7771,VALID,127,VALID,1.84258,
2012-02-10, 03:20:04,VALID,915.27,VALID,0,VALID,85.2374,VALID,0,VALID,20.7349,VALID,102,VALID,1.6293,
2012-02-10, 03:21:04,VALID,915.283,VALID,0,VALID,85.0011,VALID,0,VALID,20.7349,VALID,135,VALID,2.08633,
2012-02-10, 03:22:04,VALID,915.28,VALID,0,VALID,84.8562,VALID,0,VALID,20.7755,VALID,127,VALID,2.43672,
2012-02-10, 03:23:04,VALID,915.288,VALID,0,VALID,84.9096,VALID,0,VALID,20.7544,VALID,117,VALID,1.78242,
2012-02-10, 03:24:04,VALID,915.291,VALID,0,VALID,85.2755,VALID,0,VALID,20.7771,VALID,121,VALID,1.39844,
2012-02-10, 03:25:04,VALID,915.325,VALID,0,VALID,85.6643,VALID,0,VALID,20.7381,VALID,119,VALID,1.46172,
2012-02-10, 03:26:04,VALID,915.331,VALID,0,VALID,85.6262,VALID,0,VALID,20.6764,VALID,157,VALID,1.73359,
2012-02-10, 03:27:04,VALID,915.286,VALID,0,VALID,85.5728,VALID,0,VALID,20.7154,VALID,86,VALID,1.26328,
2012-02-10, 03:28:04,VALID,915.278,VALID,0,VALID,85.489,VALID,0,VALID,20.7365,VALID,119,VALID,1.25547,
2012-02-10, 03:29:04,VALID,915.274,VALID,0,VALID,85.0697,VALID,0,VALID,20.7154,VALID,159,VALID,2.28125,
2012-02-10, 03:30:04,VALID,915.323,VALID,0,VALID,85.3365,VALID,0,VALID,20.7966,VALID,145,VALID,1.77188,
2012-02-10, 03:31:04,VALID,915.317,VALID,0,VALID,85.6186,VALID,0,VALID,20.6943,VALID,123,VALID,1.8457,
2012-02-10, 03:32:04,VALID,915.326,VALID,0,VALID,85.55,VALID,0,VALID,20.6553,VALID,136,VALID,2.25391,
2012-02-10, 03:33:04,VALID,915.3,VALID,0,VALID,85.954,VALID,0,VALID,20.6358,VALID,115,VALID,1.71016,
2012-02-10, 03:34:04,VALID,915.321,VALID,0,VALID,85.7101,VALID,0,VALID,20.678,VALID,144,VALID,2.0125,
2012-02-10, 03:35:04,VALID,915.337,VALID,0,VALID,85.7482,VALID,0,VALID,20.6975,VALID,165,VALID,2.02109,
2012-02-10, 03:36:04,VALID,915.308,VALID,0,VALID,85.0011,VALID,0,VALID,20.717,VALID,131,VALID,2.53516,
2012-02-10, 03:37:04,VALID,915.358,VALID,0,VALID,85.1536,VALID,0,VALID,20.7739,VALID,120,VALID,1.79844,
2012-02-10, 03:38:04,VALID,915.35,VALID,0,VALID,85.2908,VALID,0,VALID,20.7544,VALID,126,VALID,0.908984,
2012-02-10, 03:39:04,VALID,915.336,VALID,0,VALID,85.7253,VALID,0,VALID,20.7365,VALID,146,VALID,1.44805,
2012-02-10, 03:40:04,VALID,915.326,VALID,0,VALID,86.0379,VALID,0,VALID,20.6764,VALID,137,VALID,1.10938,
2012-02-10, 03:41:04,VALID,915.315,VALID,0,VALID,85.9235,VALID,0,VALID,20.6374,VALID,131,VALID,2.63789,
2012-02-10, 03:42:04,VALID,915.322,VALID,0,VALID,85.7329,VALID,0,VALID,20.678,VALID,144,VALID,2.28477,
2012-02-10, 03:43:04,VALID,915.315,VALID,0,VALID,85.9921,VALID,0,VALID,20.6764,VALID,169,VALID,1.76641,
2012-02-10, 03:44:04,VALID,915.349,VALID,0,VALID,86.3657,VALID,0,VALID,20.6585,VALID,187,VALID,0.855078,
2012-02-10, 03:45:04,VALID,915.344,VALID,0,VALID,86.663,VALID,0,VALID,20.5984,VALID,116,VALID,1.4918,